Back to catalog

GALILEO-FM4

LostNavigationMEO
NORAD 38858·PAYLOAD·🇪🇺 EU

Launched Oct 12, 2012 from Guiana Space Centre

Loading…

Next Passes (next 24 hours)

TLE

StaleSource: Space-Track

Epoch: Mar 1, 2025, 18:33 UTC

1 38858U 12055B   25060.77336331  .00000028  00000-0  00000-0 0  9991
2 38858  55.5405 115.2181 0002939 278.1775  81.8829  1.64591902  5353

Track GALILEO-FM4 in real time with AllMySat

Download on the App Store